Time,TemperatureF,DewpointF,PressureIn,WindDirection,WindDirectionDegrees,WindSpeedMPH,WindSpeedGustMPH,Humidity,HourlyPrecipIn,Conditions,Clouds,dailyrainin,SoftwareType,DateUTC
2013-06-15 00:04:00,72.9,45.0,29.86,SW,228,0.0,-999.0,37,-99.99,,,0.00,weatherlink.com 1.10,2013-06-15 07:04:00,
2013-06-15 00:11:00,70.9,45.0,29.86,SW,228,0.0,-999.0,39,-99.99,,,0.00,weatherlink.com 1.10,2013-06-15 07:11:00,
2013-06-15 00:28:00,70.4,45.0,29.86,West,268,0.0,-999.0,40,-99.99,,,0.00,weatherlink.com 1.10,2013-06-15 07:28:00,
2013-06-15 00:41:00,71.8,46.0,29.86,West,276,0.0,-999.0,40,-99.99,,,0.00,weatherlink.com 1.10,2013-06-15 07:41:00,
2013-06-15 01:03:00,72.5,47.0,29.85,WSW,251,0.0,-999.0,40,-99.99,,,0.00,weatherlink.com 1.10,2013-06-15 08:03:00,
2013-06-15 01:11:00,72.5,47.0,29.85,NW,323,0.0,-999.0,40,-99.99,,,0.00,weatherlink.com 1.10,2013-06-15 08:11:00,
2013-06-15 01:26:00,72.3,47.0,29.85,WSW,248,0.0,-999.0,40,-99.99,,,0.00,weatherlink.com 1.10,2013-06-15 08:26:00,
2013-06-15 01:41:00,72.2,47.0,29.85,NW,313,0.0,-999.0,41,-99.99,,,0.00,weatherlink.com 1.10,2013-06-15 08:41:00,
2013-06-15 02:03:00,71.7,47.0,29.85,WSW,250,0.0,-999.0,42,-99.99,,,0.00,weatherlink.com 1.10,2013-06-15 09:03:00,
2013-06-15 02:11:00,71.8,49.0,29.84,West,269,0.0,-999.0,45,-99.99,,,0.00,weatherlink.com 1.10,2013-06-15 09:11:00,
2013-06-15 02:26:00,71.6,49.0,29.84,West,275,0.0,-999.0,45,-99.99,,,0.00,weatherlink.com 1.10,2013-06-15 09:26:00,
2013-06-15 02:41:00,71.1,49.0,29.84,West,275,1.0,-999.0,45,-99.99,,,0.00,weatherlink.com 1.10,2013-06-15 09:41:00,
2013-06-15 03:32:00,69.9,50.0,29.85,West,270,0.0,-999.0,49,-99.99,,,0.00,weatherlink.com 1.10,2013-06-15 10:32:00,
2013-06-15 03:42:00,69.4,50.0,29.86,West,273,0.0,-999.0,50,-99.99,,,0.00,weatherlink.com 1.10,2013-06-15 10:42:00,
2013-06-15 03:57:00,69.0,50.0,29.86,West,273,0.0,-999.0,51,-99.99,,,0.00,weatherlink.com 1.10,2013-06-15 10:57:00,
2013-06-15 04:12:00,68.3,49.0,29.87,West,273,0.0,-999.0,51,-99.99,,,0.00,weatherlink.com 1.10,2013-06-15 11:12:00,
2013-06-15 04:32:00,67.7,49.0,29.87,West,273,0.0,-999.0,52,-99.99,,,0.00,weatherlink.com 1.10,2013-06-15 11:32:00,
2013-06-15 04:42:00,66.1,49.0,29.88,West,273,0.0,-999.0,54,-99.99,,,0.00,weatherlink.com 1.10,2013-06-15 11:42:00,
2013-06-15 04:57:00,64.9,49.0,29.88,West,273,0.0,-999.0,56,-99.99,,,0.00,weatherlink.com 1.10,2013-06-15 11:57:00,
2013-06-15 05:12:00,64.3,49.0,29.89,West,273,0.0,-999.0,57,-99.99,,,0.00,weatherlink.com 1.10,2013-06-15 12:12:00,
2013-06-15 05:46:00,64.2,49.0,29.89,West,273,0.0,-999.0,58,-99.99,,,0.00,weatherlink.com 1.10,2013-06-15 12:46:00,
2013-06-15 05:56:00,64.8,49.0,29.89,West,273,0.0,-999.0,57,-99.99,,,0.00,weatherlink.com 1.10,2013-06-15 12:56:00,
2013-06-15 06:11:00,65.1,49.0,29.90,SW,228,0.0,-999.0,57,-99.99,,,0.00,weatherlink.com 1.10,2013-06-15 13:11:00,
2013-06-15 06:26:00,66.0,50.0,29.90,SW,228,0.0,-999.0,56,-99.99,,,0.00,weatherlink.com 1.10,2013-06-15 13:26:00,
2013-06-15 06:47:00,67.4,51.0,29.90,SW,228,0.0,-999.0,57,-99.99,,,0.00,weatherlink.com 1.10,2013-06-15 13:47:00,
2013-06-15 06:57:00,69.1,52.0,29.90,SW,228,0.0,-999.0,55,-99.99,,,0.00,weatherlink.com 1.10,2013-06-15 13:57:00,
2013-06-15 07:14:00,72.3,51.0,29.91,SW,229,0.0,-999.0,48,-99.99,,,0.00,weatherlink.com 1.10,2013-06-15 14:14:00,
2013-06-15 07:27:00,75.3,52.0,29.91,WSW,239,0.0,-999.0,44,-99.99,,,0.00,weatherlink.com 1.10,2013-06-15 14:27:00,
2013-06-15 07:47:00,76.9,51.0,29.91,WNW,292,0.0,-999.0,41,-99.99,,,0.00,weatherlink.com 1.10,2013-06-15 14:47:00,
2013-06-15 07:57:00,78.6,50.0,29.92,West,270,0.0,-999.0,37,-99.99,,,0.00,weatherlink.com 1.10,2013-06-15 14:57:00,
2013-06-15 08:12:00,80.7,51.0,29.92,WNW,297,0.0,-999.0,36,-99.99,,,0.00,weatherlink.com 1.10,2013-06-15 15:12:00,
2013-06-15 08:27:00,82.5,52.0,29.93,West,273,0.0,-999.0,35,-99.99,,,0.00,weatherlink.com 1.10,2013-06-15 15:27:00,
2013-06-15 08:47:00,83.0,53.0,29.93,ESE,111,0.0,-999.0,36,-99.99,,,0.00,weatherlink.com 1.10,2013-06-15 15:47:00,
2013-06-15 08:57:00,82.9,53.0,29.93,West,264,3.0,-999.0,36,-99.99,,,0.00,weatherlink.com 1.10,2013-06-15 15:57:00,
2013-06-15 09:12:00,83.3,53.0,29.92,WSW,246,0.0,-999.0,35,-99.99,,,0.00,weatherlink.com 1.10,2013-06-15 16:12:00,
2013-06-15 09:27:00,83.8,54.0,29.92,West,272,4.0,-999.0,36,-99.99,,,0.00,weatherlink.com 1.10,2013-06-15 16:27:00,
2013-06-15 09:47:00,83.3,53.0,29.92,West,274,2.0,-999.0,35,-99.99,,,0.00,weatherlink.com 1.10,2013-06-15 16:47:00,
2013-06-15 09:57:00,83.4,53.0,29.92,WSW,257,2.0,-999.0,35,-99.99,,,0.00,weatherlink.com 1.10,2013-06-15 16:57:00,
2013-06-15 10:12:00,84.6,53.0,29.92,WSW,248,0.0,-999.0,34,-99.99,,,0.00,weatherlink.com 1.10,2013-06-15 17:12:00,
2013-06-15 10:27:00,84.9,54.0,29.92,WSW,237,0.0,-999.0,35,-99.99,,,0.00,weatherlink.com 1.10,2013-06-15 17:27:00,
2013-06-15 10:47:00,84.9,54.0,29.92,West,277,5.0,-999.0,34,-99.99,,,0.00,weatherlink.com 1.10,2013-06-15 17:47:00,
2013-06-15 10:57:00,85.6,53.0,29.92,SW,234,0.0,-999.0,33,-99.99,,,0.00,weatherlink.com 1.10,2013-06-15 17:57:00,
2013-06-15 11:12:00,87.2,53.0,29.92,WNW,284,5.0,-999.0,31,-99.99,,,0.00,weatherlink.com 1.10,2013-06-15 18:12:00,
2013-06-15 11:27:00,88.4,52.0,29.92,WSW,257,0.0,-999.0,29,-99.99,,,0.00,weatherlink.com 1.10,2013-06-15 18:27:00,
2013-06-15 11:47:00,88.3,53.0,29.91,West,278,0.0,-999.0,30,-99.99,,,0.00,weatherlink.com 1.10,2013-06-15 18:47:00,
2013-06-15 11:57:00,87.4,52.0,29.90,West,272,0.0,-999.0,30,-99.99,,,0.00,weatherlink.com 1.10,2013-06-15 18:57:00,
2013-06-15 12:12:00,87.7,53.0,29.90,SSW,204,1.0,-999.0,30,-99.99,,,0.00,weatherlink.com 1.10,2013-06-15 19:12:00,
2013-06-15 12:27:00,88.9,52.0,29.90,ESE,121,0.0,-999.0,28,-99.99,,,0.00,weatherlink.com 1.10,2013-06-15 19:27:00,
2013-06-15 12:42:00,88.7,52.0,29.88,WNW,296,0.0,-999.0,28,-99.99,,,0.00,weatherlink.com 1.10,2013-06-15 19:42:00,
2013-06-15 12:59:00,89.1,51.0,29.88,West,267,1.0,-999.0,27,-99.99,,,0.00,weatherlink.com 1.10,2013-06-15 19:59:00,
2013-06-15 13:13:00,89.7,50.0,29.88,SW,234,2.0,-999.0,25,-99.99,,,0.00,weatherlink.com 1.10,2013-06-15 20:13:00,
2013-06-15 13:28:00,87.3,50.0,29.88,SE,135,2.0,-999.0,28,-99.99,,,0.00,weatherlink.com 1.10,2013-06-15 20:28:00,
2013-06-15 13:43:00,83.7,52.0,29.87,SE,144,8.0,-999.0,34,-99.99,,,0.00,weatherlink.com 1.10,2013-06-15 20:43:00,
2013-06-15 13:58:00,84.4,51.0,29.87,SE,143,1.0,-999.0,31,-99.99,,,0.00,weatherlink.com 1.10,2013-06-15 20:58:00,
2013-06-15 14:12:00,85.7,50.0,29.86,West,273,0.0,-999.0,29,-99.99,,,0.00,weatherlink.com 1.10,2013-06-15 21:12:00,
2013-06-15 14:27:00,86.6,51.0,29.87,WNW,288,4.0,-999.0,29,-99.99,,,0.00,weatherlink.com 1.10,2013-06-15 21:27:00,
2013-06-15 14:42:00,85.2,50.0,29.86,West,269,2.0,-999.0,30,-99.99,,,0.00,weatherlink.com 1.10,2013-06-15 21:42:00,
2013-06-15 14:57:00,83.8,51.0,29.86,West,261,0.0,-999.0,32,-99.99,,,0.00,weatherlink.com 1.10,2013-06-15 21:57:00,
2013-06-15 15:12:00,82.3,48.0,29.87,SSW,213,0.0,-999.0,30,-99.99,,,0.00,weatherlink.com 1.10,2013-06-15 22:12:00,
2013-06-15 15:27:00,80.6,50.0,29.86,West,274,0.0,-999.0,34,-99.99,,,0.00,weatherlink.com 1.10,2013-06-15 22:27:00,
2013-06-15 15:42:00,79.1,48.0,29.86,West,277,0.0,-999.0,34,-99.99,,,0.00,weatherlink.com 1.10,2013-06-15 22:42:00,
2013-06-15 15:57:00,80.5,46.0,29.86,West,272,2.0,-999.0,30,-99.99,,,0.00,weatherlink.com 1.10,2013-06-15 22:57:00,
2013-06-15 16:12:00,82.9,48.0,29.85,West,273,1.0,-999.0,29,-99.99,,,0.00,weatherlink.com 1.10,2013-06-15 23:12:00,
2013-06-15 16:27:00,84.4,47.0,29.85,West,263,3.0,-999.0,27,-99.99,,,0.00,weatherlink.com 1.10,2013-06-15 23:27:00,
2013-06-15 16:44:00,83.1,47.0,29.85,West,274,0.0,-999.0,28,-99.99,,,0.00,weatherlink.com 1.10,2013-06-15 23:44:00,
2013-06-15 16:57:00,82.9,46.0,29.85,West,274,2.0,-999.0,27,-99.99,,,0.00,weatherlink.com 1.10,2013-06-15 23:57:00,
2013-06-15 17:12:00,81.0,51.0,29.85,West,262,2.0,-999.0,35,-99.99,,,0.00,weatherlink.com 1.10,2013-06-16 00:12:00,
2013-06-15 17:27:00,79.0,51.0,29.86,West,274,1.0,-999.0,38,-99.99,,,0.00,weatherlink.com 1.10,2013-06-16 00:27:00,
2013-06-15 17:42:00,79.2,51.0,29.86,West,270,0.0,-999.0,38,-99.99,,,0.00,weatherlink.com 1.10,2013-06-16 00:42:00,
2013-06-15 17:57:00,79.8,52.0,29.86,West,270,0.0,-999.0,38,-99.99,,,0.00,weatherlink.com 1.10,2013-06-16 00:57:00,
2013-06-15 18:12:00,80.3,52.0,29.85,West,271,0.0,-999.0,37,-99.99,,,0.00,weatherlink.com 1.10,2013-06-16 01:12:00,
2013-06-15 18:27:00,80.7,52.0,29.85,West,271,0.0,-999.0,37,-99.99,,,0.00,weatherlink.com 1.10,2013-06-16 01:27:00,
2013-06-15 18:42:00,80.5,53.0,29.86,West,271,0.0,-999.0,38,-99.99,,,0.00,weatherlink.com 1.10,2013-06-16 01:42:00,
2013-06-15 18:57:00,79.6,52.0,29.86,West,271,0.0,-999.0,38,-99.99,,,0.00,weatherlink.com 1.10,2013-06-16 01:57:00,
2013-06-15 19:12:00,78.6,52.0,29.86,West,271,0.0,-999.0,39,-99.99,,,0.00,weatherlink.com 1.10,2013-06-16 02:12:00,
2013-06-15 19:27:00,77.4,50.0,29.87,West,271,0.0,-999.0,39,-99.99,,,0.00,weatherlink.com 1.10,2013-06-16 02:27:00,
2013-06-15 19:42:00,76.5,50.0,29.88,West,278,0.0,-999.0,39,-99.99,,,0.00,weatherlink.com 1.10,2013-06-16 02:42:00,
2013-06-15 19:57:00,75.7,51.0,29.88,West,279,0.0,-999.0,42,-99.99,,,0.00,weatherlink.com 1.10,2013-06-16 02:57:00,
2013-06-15 20:12:00,75.2,50.0,29.89,West,279,0.0,-999.0,42,-99.99,,,0.00,weatherlink.com 1.10,2013-06-16 03:12:00,
2013-06-15 20:27:00,74.6,51.0,29.90,West,279,0.0,-999.0,43,-99.99,,,0.00,weatherlink.com 1.10,2013-06-16 03:27:00,
2013-06-15 20:42:00,74.1,50.0,29.91,West,279,0.0,-999.0,43,-99.99,,,0.00,weatherlink.com 1.10,2013-06-16 03:42:00,
2013-06-15 20:58:00,73.8,49.0,29.93,East,82,0.0,-999.0,42,-99.99,,,0.00,weatherlink.com 1.10,2013-06-16 03:58:00,
2013-06-15 21:12:00,73.7,49.0,29.93,East,82,0.0,-999.0,42,-99.99,,,0.00,weatherlink.com 1.10,2013-06-16 04:12:00,
2013-06-15 21:27:00,72.9,51.0,29.94,SSE,149,1.0,-999.0,47,-99.99,,,0.00,weatherlink.com 1.10,2013-06-16 04:27:00,
2013-06-15 21:42:00,72.1,51.0,29.95,SSE,150,0.0,-999.0,48,-99.99,,,0.00,weatherlink.com 1.10,2013-06-16 04:42:00,
2013-06-15 21:58:00,71.7,51.0,29.95,SSE,150,0.0,-999.0,48,-99.99,,,0.00,weatherlink.com 1.10,2013-06-16 04:58:00,
2013-06-15 22:13:00,71.4,51.0,29.95,SSE,150,0.0,-999.0,48,-99.99,,,0.00,weatherlink.com 1.10,2013-06-16 05:13:00,
2013-06-15 22:28:00,71.0,50.0,29.95,SSE,150,0.0,-999.0,48,-99.99,,,0.00,weatherlink.com 1.10,2013-06-16 05:28:00,
2013-06-15 22:44:00,70.1,50.0,29.94,SSE,150,0.0,-999.0,49,-99.99,,,0.00,weatherlink.com 1.10,2013-06-16 05:44:00,
2013-06-15 22:58:00,68.9,49.0,29.94,SSE,150,0.0,-999.0,50,-99.99,,,0.00,weatherlink.com 1.10,2013-06-16 05:58:00,
2013-06-15 23:13:00,67.9,48.0,29.94,SSE,150,0.0,-999.0,50,-99.99,,,0.00,weatherlink.com 1.10,2013-06-16 06:13:00,
2013-06-15 23:28:00,67.1,48.0,29.94,SSE,150,0.0,-999.0,51,-99.99,,,0.00,weatherlink.com 1.10,2013-06-16 06:28:00,
2013-06-15 23:43:00,66.3,47.0,29.94,SSE,150,0.0,-999.0,51,-99.99,,,0.00,weatherlink.com 1.10,2013-06-16 06:43:00,
2013-06-15 23:58:00,65.9,47.0,29.94,SSE,151,0.0,-999.0,51,-99.99,,,0.00,weatherlink.com 1.10,2013-06-16 06:58:00,